Time,TemperatureF,DewpointF,PressureIn,WindDirection,WindDirectionDegrees,WindSpeedMPH,WindSpeedGustMPH,Humidity,HourlyPrecipIn,Conditions,Clouds,dailyrainin,SoftwareType,DateUTC
2013-05-14 00:01:00,60.0,50.0,29.94,WSW,248,2.0,6.0,69,0.00,,,0.00,,2013-05-14 07:01:00,
2013-05-14 00:11:00,60.0,50.0,29.94,WSW,248,2.0,6.0,69,0.00,,,0.00,,2013-05-14 07:11:00,
2013-05-14 00:21:00,60.0,51.0,29.94,West,271,0.0,4.0,71,0.00,,,0.00,,2013-05-14 07:21:00,
2013-05-14 00:31:00,60.0,51.0,29.94,West,271,0.0,1.0,71,0.00,,,0.00,,2013-05-14 07:31:00,
2013-05-14 00:41:00,59.0,50.0,29.94,West,271,327.0,327.0,71,-99.99,,,-99.99,,2013-05-14 07:41:00,
2013-05-14 00:52:00,59.0,50.0,29.94,West,271,327.0,327.0,71,-99.99,,,-99.99,,2013-05-14 07:52:00,
2013-05-14 01:02:00,59.0,50.0,29.94,West,271,0.0,2.0,71,0.00,,,0.00,,2013-05-14 08:02:00,
2013-05-14 01:11:00,59.0,50.0,29.94,West,271,0.0,2.0,71,0.00,,,0.00,,2013-05-14 08:11:00,
2013-05-14 01:21:00,59.0,50.0,29.94,West,271,0.0,1.0,72,0.00,,,0.00,,2013-05-14 08:21:00,
2013-05-14 01:31:00,58.0,49.0,29.92,West,271,0.0,2.0,72,0.00,,,0.00,,2013-05-14 08:31:00,
2013-05-14 01:41:00,58.0,49.0,29.93,West,261,2.0,4.0,72,0.00,,,0.00,,2013-05-14 08:41:00,
2013-05-14 01:52:00,58.0,49.0,29.93,West,261,2.0,4.0,72,0.00,,,0.00,,2013-05-14 08:52:00,
2013-05-14 02:01:00,58.0,49.0,29.93,West,272,3.0,4.0,73,0.00,,,0.00,,2013-05-14 09:01:00,
2013-05-14 02:11:00,58.0,49.0,29.93,West,272,3.0,4.0,73,0.00,,,0.00,,2013-05-14 09:11:00,
2013-05-14 02:21:00,57.0,49.0,29.93,West,279,1.0,6.0,74,0.00,,,0.00,,2013-05-14 09:21:00,
2013-05-14 02:32:00,57.0,49.0,29.92,SW,223,1.0,3.0,75,0.00,,,0.00,,2013-05-14 09:32:00,
2013-05-14 02:44:00,56.0,49.0,29.92,WSW,241,2.0,5.0,76,0.00,,,0.00,,2013-05-14 09:44:00,
2013-05-14 02:54:00,56.0,49.0,29.92,WSW,241,2.0,5.0,76,0.00,,,0.00,,2013-05-14 09:54:00,
2013-05-14 03:04:00,56.0,49.0,29.92,WNW,287,3.0,7.0,77,0.00,,,0.00,,2013-05-14 10:04:00,
2013-05-14 03:14:00,56.0,49.0,29.92,WNW,287,3.0,7.0,77,0.00,,,0.00,,2013-05-14 10:14:00,
2013-05-14 03:25:00,56.0,49.0,29.92,West,273,1.0,4.0,77,0.00,,,0.00,,2013-05-14 10:25:00,
2013-05-14 03:32:00,56.0,49.0,29.92,WNW,292,4.0,7.0,78,0.00,,,0.00,,2013-05-14 10:32:00,
2013-05-14 03:42:00,56.0,49.0,29.92,WNW,292,4.0,7.0,78,0.00,,,0.00,,2013-05-14 10:42:00,
2013-05-14 03:52:00,55.0,49.0,29.91,WNW,290,1.0,4.0,79,0.00,,,0.00,,2013-05-14 10:52:00,
2013-05-14 04:02:00,55.0,49.0,29.92,WNW,292,3.0,5.0,79,0.00,,,0.00,,2013-05-14 11:02:00,
2013-05-14 04:11:00,55.0,49.0,29.92,WNW,292,3.0,5.0,79,0.00,,,0.00,,2013-05-14 11:11:00,
2013-05-14 04:21:00,55.0,49.0,29.92,West,281,1.0,4.0,79,0.00,,,0.00,,2013-05-14 11:21:00,
2013-05-14 04:32:00,55.0,49.0,29.92,West,281,2.0,8.0,80,0.00,,,0.00,,2013-05-14 11:32:00,
2013-05-14 04:43:00,55.0,49.0,29.92,West,281,2.0,8.0,80,0.00,,,0.00,,2013-05-14 11:43:00,
2013-05-14 04:52:00,55.0,49.0,29.92,West,272,3.0,6.0,81,0.00,,,0.00,,2013-05-14 11:52:00,
2013-05-14 05:02:00,54.0,48.0,29.92,West,271,1.0,5.0,81,0.00,,,0.00,,2013-05-14 12:02:00,
2013-05-14 05:12:00,54.0,48.0,29.92,West,271,1.0,5.0,81,0.00,,,0.00,,2013-05-14 12:12:00,
2013-05-14 05:21:00,54.0,49.0,29.93,WNW,296,2.0,5.0,82,0.00,,,0.00,,2013-05-14 12:21:00,
2013-05-14 05:31:00,54.0,49.0,29.93,West,279,3.0,8.0,82,0.00,,,0.00,,2013-05-14 12:31:00,
2013-05-14 05:41:00,54.0,49.0,29.93,West,279,3.0,8.0,82,0.00,,,0.00,,2013-05-14 12:41:00,
2013-05-14 05:52:00,54.0,49.0,29.93,WNW,298,2.0,7.0,82,0.00,,,0.00,,2013-05-14 12:52:00,
2013-05-14 06:01:00,54.0,49.0,29.93,WNW,298,1.0,3.0,82,0.00,,,0.00,,2013-05-14 13:01:00,
2013-05-14 06:11:00,54.0,49.0,29.93,WNW,298,1.0,3.0,82,0.00,,,0.00,,2013-05-14 13:11:00,
2013-05-14 06:22:00,54.0,49.0,29.92,WNW,298,1.0,2.0,83,0.00,,,0.00,,2013-05-14 13:22:00,
2013-05-14 06:31:00,53.0,48.0,29.92,WNW,298,1.0,2.0,83,0.00,,,0.00,,2013-05-14 13:31:00,
2013-05-14 06:41:00,53.0,48.0,29.92,WNW,298,1.0,2.0,83,0.00,,,0.00,,2013-05-14 13:41:00,
2013-05-14 06:52:00,53.0,48.0,29.92,WNW,298,1.0,2.0,83,0.00,,,0.00,,2013-05-14 13:52:00,
2013-05-14 07:01:00,54.0,49.0,29.93,WNW,290,2.0,4.0,83,0.00,,,0.00,,2013-05-14 14:01:00,
2013-05-14 07:11:00,54.0,49.0,29.93,WNW,286,327.0,327.0,82,-99.99,,,-99.99,,2013-05-14 14:11:00,
2013-05-14 07:22:00,54.0,49.0,29.93,WNW,286,327.0,327.0,82,-99.99,,,-99.99,,2013-05-14 14:22:00,
2013-05-14 07:31:00,55.0,49.0,29.94,WNW,300,4.0,8.0,80,0.00,,,0.00,,2013-05-14 14:31:00,
2013-05-14 07:41:00,55.0,49.0,29.94,WNW,300,4.0,8.0,80,0.00,,,0.00,,2013-05-14 14:41:00,
2013-05-14 07:52:00,56.0,50.0,29.93,WNW,290,2.0,6.0,79,0.00,,,0.00,,2013-05-14 14:52:00,
2013-05-14 08:01:00,57.0,50.0,29.93,WNW,303,2.0,5.0,76,0.00,,,0.00,,2013-05-14 15:01:00,
2013-05-14 08:11:00,57.0,50.0,29.93,WNW,303,2.0,5.0,76,0.00,,,0.00,,2013-05-14 15:11:00,
2013-05-14 08:21:00,58.0,50.0,29.93,WNW,286,1.0,4.0,75,0.00,,,0.00,,2013-05-14 15:21:00,
2013-05-14 08:32:00,60.0,51.0,29.93,WNW,303,3.0,5.0,72,0.00,,,0.00,,2013-05-14 15:32:00,
2013-05-14 08:42:00,61.0,52.0,29.93,WNW,295,1.0,8.0,71,0.00,,,0.00,,2013-05-14 15:42:00,
2013-05-14 08:53:00,61.0,52.0,29.93,WNW,295,1.0,8.0,71,0.00,,,0.00,,2013-05-14 15:53:00,
2013-05-14 09:02:00,63.0,52.0,29.94,SSW,205,3.0,8.0,67,0.00,,,0.00,,2013-05-14 16:02:00,
2013-05-14 09:12:00,63.0,52.0,29.94,SSW,205,3.0,8.0,67,0.00,,,0.00,,2013-05-14 16:12:00,
2013-05-14 09:22:00,64.0,52.0,29.94,South,175,5.0,10.0,65,0.00,,,0.00,,2013-05-14 16:22:00,
2013-05-14 09:33:00,63.0,51.0,29.94,WSW,245,4.0,11.0,65,0.00,,,0.00,,2013-05-14 16:33:00,
2013-05-14 09:43:00,63.0,51.0,29.94,WSW,245,4.0,11.0,65,0.00,,,0.00,,2013-05-14 16:43:00,
2013-05-14 09:54:00,64.0,52.0,29.94,West,262,3.0,6.0,64,0.00,,,0.00,,2013-05-14 16:54:00,
2013-05-14 10:03:00,67.0,52.0,29.94,WSW,252,4.0,9.0,59,0.00,,,0.00,,2013-05-14 17:03:00,
2013-05-14 10:13:00,67.0,52.0,29.94,WSW,252,4.0,9.0,59,0.00,,,0.00,,2013-05-14 17:13:00,
2013-05-14 10:24:00,68.0,53.0,29.93,SW,219,1.0,7.0,58,0.00,,,0.00,,2013-05-14 17:24:00,
2013-05-14 10:32:00,69.0,52.0,29.93,WNW,290,2.0,9.0,54,0.00,,,0.00,,2013-05-14 17:32:00,
2013-05-14 10:43:00,69.0,52.0,29.93,WNW,290,2.0,9.0,54,0.00,,,0.00,,2013-05-14 17:43:00,
2013-05-14 10:52:00,70.0,51.0,29.93,NW,306,6.0,10.0,51,0.00,,,0.00,,2013-05-14 17:52:00,
2013-05-14 11:01:00,71.0,52.0,29.94,West,281,6.0,12.0,51,0.00,,,0.00,,2013-05-14 18:01:00,
2013-05-14 11:12:00,71.0,52.0,29.94,West,281,6.0,12.0,51,0.00,,,0.00,,2013-05-14 18:12:00,
2013-05-14 11:22:00,71.0,52.0,29.94,WNW,288,5.0,11.0,51,0.00,,,0.00,,2013-05-14 18:22:00,
2013-05-14 11:31:00,72.0,52.0,29.94,SSW,211,2.0,7.0,50,0.00,,,0.00,,2013-05-14 18:31:00,
2013-05-14 11:42:00,72.0,52.0,29.94,SSW,211,2.0,7.0,50,0.00,,,0.00,,2013-05-14 18:42:00,
2013-05-14 11:52:00,75.0,53.0,29.95,SSW,205,3.0,8.0,47,0.00,,,0.00,,2013-05-14 18:52:00,
2013-05-14 12:01:00,75.0,52.0,29.94,WSW,256,3.0,7.0,45,0.00,,,0.00,,2013-05-14 19:01:00,
2013-05-14 12:11:00,75.0,52.0,29.94,WSW,256,3.0,7.0,45,0.00,,,0.00,,2013-05-14 19:11:00,
2013-05-14 12:21:00,76.0,53.0,29.94,WSW,240,4.0,10.0,45,0.00,,,0.00,,2013-05-14 19:21:00,
2013-05-14 12:31:00,77.0,52.0,29.93,SSW,211,4.0,7.0,42,0.00,,,0.00,,2013-05-14 19:31:00,
2013-05-14 12:41:00,77.0,52.0,29.93,SSW,211,4.0,7.0,42,0.00,,,0.00,,2013-05-14 19:41:00,
2013-05-14 12:52:00,78.0,54.0,29.93,WSW,237,4.0,10.0,43,0.00,,,0.00,,2013-05-14 19:52:00,
2013-05-14 13:01:00,79.0,54.0,29.92,South,188,4.0,14.0,42,0.00,,,0.00,,2013-05-14 20:01:00,
2013-05-14 13:11:00,79.0,54.0,29.92,South,188,4.0,14.0,42,0.00,,,0.00,,2013-05-14 20:11:00,
2013-05-14 13:22:00,79.0,54.0,29.92,SSW,202,4.0,11.0,42,0.00,,,0.00,,2013-05-14 20:22:00,
2013-05-14 13:32:00,80.0,54.0,29.92,SW,215,4.0,9.0,41,0.00,,,0.00,,2013-05-14 20:32:00,
2013-05-14 13:43:00,80.0,54.0,29.92,SW,215,4.0,9.0,41,0.00,,,0.00,,2013-05-14 20:43:00,
2013-05-14 13:52:00,79.0,55.0,29.92,NW,311,8.0,13.0,43,0.00,,,0.00,,2013-05-14 20:52:00,
2013-05-14 14:03:00,79.0,54.0,29.91,WNW,284,5.0,14.0,42,0.00,,,0.00,,2013-05-14 21:03:00,
2013-05-14 14:12:00,79.0,54.0,29.91,WNW,284,5.0,14.0,42,0.00,,,0.00,,2013-05-14 21:12:00,
2013-05-14 14:22:00,79.0,53.0,29.91,WSW,245,7.0,14.0,41,0.00,,,0.00,,2013-05-14 21:22:00,
2013-05-14 14:33:00,80.0,53.0,29.91,SSW,204,7.0,14.0,40,0.00,,,0.00,,2013-05-14 21:33:00,
2013-05-14 14:42:00,80.0,53.0,29.91,SSW,204,7.0,14.0,40,0.00,,,0.00,,2013-05-14 21:42:00,
2013-05-14 14:53:00,80.0,53.0,29.91,WNW,288,7.0,14.0,39,0.00,,,0.00,,2013-05-14 21:53:00,
2013-05-14 15:03:00,80.0,53.0,29.91,WNW,291,5.0,17.0,40,0.00,,,0.00,,2013-05-14 22:03:00,
2013-05-14 15:13:00,80.0,53.0,29.91,WNW,291,5.0,17.0,40,0.00,,,0.00,,2013-05-14 22:13:00,
2013-05-14 15:24:00,79.0,53.0,29.91,West,269,6.0,17.0,40,0.00,,,0.00,,2013-05-14 22:24:00,
2013-05-14 15:34:00,79.0,53.0,29.91,West,276,7.0,14.0,40,0.00,,,0.00,,2013-05-14 22:34:00,
2013-05-14 15:45:00,79.0,53.0,29.91,West,276,7.0,14.0,40,0.00,,,0.00,,2013-05-14 22:45:00,
2013-05-14 15:54:00,77.0,51.0,29.91,WNW,294,8.0,15.0,40,0.00,,,0.00,,2013-05-14 22:54:00,
2013-05-14 16:03:00,78.0,52.0,29.91,West,275,5.0,14.0,41,0.00,,,0.00,,2013-05-14 23:03:00,
2013-05-14 16:12:00,78.0,52.0,29.91,West,275,5.0,14.0,41,0.00,,,0.00,,2013-05-14 23:12:00,
2013-05-14 16:21:00,79.0,50.0,29.91,West,276,6.0,18.0,36,0.00,,,0.00,,2013-05-14 23:21:00,
2013-05-14 16:31:00,78.0,50.0,29.91,West,259,4.0,11.0,38,0.00,,,0.00,,2013-05-14 23:31:00,
2013-05-14 16:44:00,78.0,50.0,29.91,West,259,4.0,11.0,38,0.00,,,0.00,,2013-05-14 23:44:00,
2013-05-14 16:52:00,77.0,49.0,29.91,West,267,5.0,14.0,38,0.00,,,0.00,,2013-05-14 23:52:00,
2013-05-14 17:01:00,76.0,47.0,29.91,WSW,243,6.0,12.0,36,0.00,,,0.00,,2013-05-15 00:01:00,
2013-05-14 17:11:00,76.0,47.0,29.91,WSW,243,6.0,12.0,36,0.00,,,0.00,,2013-05-15 00:11:00,
2013-05-14 17:21:00,76.0,44.0,29.91,WSW,244,8.0,12.0,32,0.00,,,0.00,,2013-05-15 00:21:00,
2013-05-14 17:32:00,76.0,45.0,29.91,SSW,208,4.0,8.0,33,0.00,,,0.00,,2013-05-15 00:32:00,
2013-05-14 17:41:00,76.0,45.0,29.91,SSW,208,4.0,8.0,33,0.00,,,0.00,,2013-05-15 00:41:00,
2013-05-14 17:52:00,74.0,45.0,29.92,SW,224,5.0,10.0,36,0.00,,,0.00,,2013-05-15 00:52:00,
2013-05-14 18:01:00,74.0,45.0,29.91,SW,232,5.0,10.0,36,0.00,,,0.00,,2013-05-15 01:01:00,
2013-05-14 18:11:00,74.0,45.0,29.91,SW,232,5.0,10.0,36,0.00,,,0.00,,2013-05-15 01:11:00,
2013-05-14 18:21:00,75.0,48.0,29.92,WSW,240,4.0,8.0,38,0.00,,,0.00,,2013-05-15 01:21:00,
2013-05-14 18:31:00,74.0,48.0,29.92,SW,223,5.0,15.0,40,0.00,,,0.00,,2013-05-15 01:31:00,
2013-05-14 18:42:00,74.0,48.0,29.92,SW,223,5.0,15.0,40,0.00,,,0.00,,2013-05-15 01:42:00,
2013-05-14 18:52:00,73.0,45.0,29.91,West,269,5.0,12.0,37,0.00,,,0.00,,2013-05-15 01:52:00,
2013-05-14 19:01:00,73.0,49.0,29.91,SW,234,3.0,10.0,42,0.00,,,0.00,,2013-05-15 02:01:00,
2013-05-14 19:11:00,73.0,49.0,29.91,SW,234,3.0,10.0,42,0.00,,,0.00,,2013-05-15 02:11:00,
2013-05-14 19:21:00,71.0,45.0,29.91,West,259,5.0,10.0,40,0.00,,,0.00,,2013-05-15 02:21:00,
2013-05-14 19:31:00,70.0,48.0,29.92,West,280,3.0,8.0,45,0.00,,,0.00,,2013-05-15 02:31:00,
2013-05-14 19:41:00,70.0,48.0,29.92,West,280,3.0,8.0,45,0.00,,,0.00,,2013-05-15 02:41:00,
2013-05-14 19:52:00,68.0,46.0,29.92,SW,236,5.0,13.0,45,0.00,,,0.00,,2013-05-15 02:52:00,
2013-05-14 20:01:00,66.0,45.0,29.93,WSW,256,3.0,14.0,47,0.00,,,0.00,,2013-05-15 03:01:00,
2013-05-14 20:12:00,66.0,45.0,29.93,WSW,256,3.0,14.0,47,0.00,,,0.00,,2013-05-15 03:12:00,
2013-05-14 20:21:00,64.0,46.0,29.94,West,274,6.0,9.0,52,0.00,,,0.00,,2013-05-15 03:21:00,
2013-05-14 20:33:00,63.0,45.0,29.94,WSW,252,4.0,13.0,52,0.00,,,0.00,,2013-05-15 03:33:00,
2013-05-14 20:44:00,62.0,44.0,29.95,WSW,255,6.0,15.0,52,0.00,,,0.00,,2013-05-15 03:44:00,
2013-05-14 20:54:00,62.0,44.0,29.95,WSW,255,6.0,15.0,52,0.00,,,0.00,,2013-05-15 03:54:00,
2013-05-14 21:03:00,61.0,45.0,29.95,West,279,5.0,11.0,55,0.00,,,0.00,,2013-05-15 04:03:00,
2013-05-14 21:12:00,61.0,45.0,29.95,West,279,5.0,11.0,55,0.00,,,0.00,,2013-05-15 04:12:00,
2013-05-14 21:23:00,60.0,45.0,29.96,WSW,256,2.0,8.0,58,0.00,,,0.00,,2013-05-15 04:23:00,
2013-05-14 21:32:00,60.0,45.0,29.96,SW,217,5.0,13.0,58,0.00,,,0.00,,2013-05-15 04:32:00,
2013-05-14 21:42:00,60.0,45.0,29.96,SW,217,5.0,13.0,58,0.00,,,0.00,,2013-05-15 04:42:00,
2013-05-14 21:52:00,59.0,45.0,29.96,WSW,250,6.0,12.0,59,0.00,,,0.00,,2013-05-15 04:52:00,
2013-05-14 22:02:00,58.0,45.0,29.97,SW,227,5.0,15.0,61,0.00,,,0.00,,2013-05-15 05:02:00,
2013-05-14 22:11:00,58.0,45.0,29.97,SW,227,5.0,15.0,61,0.00,,,0.00,,2013-05-15 05:11:00,
2013-05-14 22:22:00,57.0,45.0,29.98,West,259,7.0,13.0,63,0.00,,,0.00,,2013-05-15 05:22:00,
2013-05-14 22:32:00,56.0,44.0,29.99,WSW,253,5.0,11.0,64,0.00,,,0.00,,2013-05-15 05:32:00,
2013-05-14 22:42:00,56.0,44.0,29.99,WSW,253,5.0,11.0,64,0.00,,,0.00,,2013-05-15 05:42:00,
2013-05-14 22:52:00,56.0,44.0,29.99,WSW,242,2.0,9.0,65,0.00,,,0.00,,2013-05-15 05:52:00,
2013-05-14 23:02:00,56.0,44.0,29.99,West,261,0.0,7.0,65,0.00,,,0.00,,2013-05-15 06:02:00,
2013-05-14 23:11:00,56.0,44.0,29.99,West,261,0.0,7.0,65,0.00,,,0.00,,2013-05-15 06:11:00,
2013-05-14 23:21:00,56.0,44.0,29.99,SSW,196,3.0,7.0,65,0.00,,,0.00,,2013-05-15 06:21:00,
2013-05-14 23:31:00,55.0,44.0,30.00,West,280,3.0,8.0,66,0.00,,,0.00,,2013-05-15 06:31:00,
2013-05-14 23:41:00,55.0,44.0,30.00,West,280,3.0,8.0,66,0.00,,,0.00,,2013-05-15 06:41:00,
2013-05-14 23:52:00,55.0,45.0,30.00,WSW,252,3.0,7.0,68,0.00,,,0.00,,2013-05-15 06:52:00,